Location: Navajo
(48.7922°N, 105.0603°W)
Time: 23:19:46
(UTC+00:00)

QB50P2 - Pass Details

Date: 02 July 2022
Orbit: 590 x 605 km, 97.9° (Epoch: 16 August)

Event Time Altitude Azimuth Distance (km) Brightness Sun altitude
Rises 08:17:47 0° 16° (NNE) 2,863 ? -16.3°
Reaches altitude 10° 08:19:59 10° 20° (NNE) 1,957 ? -16.2°
Maximum altitude 08:24:13 63° 102° (ESE) 680 ? -16.0°
Enters shadow 08:26:26 26° 175° (S) 1,186 ? -15.9°
